Location: Newark
(50.8547°N, 2.7256°E)
Time: 15:16:38
(UTC+00:00)

Envisat - Pass Details

Date: 25 January 2020
Orbit: 764 x 766 km, 98.1° (Epoch: 17 February)

Event Time Altitude Azimuth Distance (km) Brightness Sun altitude
Rises 06:09:29 0° 18° (NNE) 3,245 6.3 -13.4°
Reaches altitude 10° 06:11:54 10° 24° (NNE) 2,314 5.6 -13.1°
Maximum altitude 06:16:49 47° 98° (E) 1,016 4.2 -12.3°
Drops below altitude 10° 06:21:41 10° 172° (S) 2,296 5.8 -11.6°
Sets 06:24:04 0° 179° (S) 3,218 6.5 -11.2°
